Погода в Курортном

Украина / Одесская область     45°56′31″N   30°17′55″E
темп.,
°C
ветер,
м/с
пор.,
м/с
влажн.,
%
обл.,
%
осадки,
мм/ч
давл.,
гПа
погр.,
м
21 января, пт
пт2123:000з4866100 0.0 1012147
02:000з5137362 0.0 1011247
05:000зсз71577100 0.0 1012538
08:00−1сз61274100 0.0 1014558
11:00+2сз71142100 0.0 10161061
14:00+3зсз61036100 0.0 10151567
17:000з33440 0.0 1015101
20:00−1зюз5105777 0.0 1015237
22 января, сб
сб2223:00−3сз35585 0.0 1016109
02:00−3з355870 0.0 1016102
05:00−3з47575 0.0 1015133
08:00−4з48560 0.0 1015160
11:00+1зсз46370 0.0 1016840
14:00+2зсз56363 0.0 10151409
17:00−2сз33575 0.0 101697
20:00−3зсз34615 0.0 101774
23 января, вс
вс2323:00−3сз5106310 0.0 1018327
02:00−3сз599182 0.0 1018415
05:00−4ссз598110 0.0 1018449
08:00−5ссз478514 0.0 1019335
11:00−2с5662100 0.0 10201040
14:00−1с5651100 0.1 10201312
17:00−2с586099 0.1 1022367
20:00−2ссв697068 0.1 1023589
24 января, пн
пн2423:00−4с798480 0.0 1024479
02:00−4с798364 0.1 1026513
05:00−5с6108138 0.0 1026487
08:00−5ссз71079100 0.0 1028548
11:00−3с8963100 0.0 1028679
14:00−2ссз8967100 0.0 1027783
17:00−4сз7108288 0.1 1028859
20:00−4ссз6987100 0.2 1028663
25 января, вт
вт2523:00−4ссз5887100 0.1 1028527
02:00−5сз5888100 0.3 1028470
05:00−5сз5891100 0.2 1028492
08:00−5ссз589198 0.6 1028458
11:00−3ссз5677100 0.1 1028675
14:00−2ссз5572100 0.2 1027789
17:00−4сз4590100 0.1 1026381
20:00−4сз3491100 0.1 1026252